Weather History for Monarch Pass, CO

Change the Weather History Date:

Tuesday, January 29, 2013

  Actual Average (KGUC) Record (KGUC)
Temperature  
Mean Temperature 2 °F -  
Max Temperature 8 °F 23 °F 37 °F (2003)
Min Temperature -7 °F 0 °F -16 °F (1999)
Degree Days  
Heating Degree Days 64    
Moisture  
Dew Point -5 °F    
Average Humidity 81    
Maximum Humidity 92    
Minimum Humidity 71    
Precipitation  
Precipitation 0.00 in - - ()
Sea Level Pressure  
Sea Level Pressure 29.64 in    
Wind  
Wind Speed - (North)    
Max Wind Speed -    
Max Gust Speed -    
Averages and records for this station are not official NWS values.
T = Trace of Precipitation, MM = Missing Value Source: NWS Daily Summary

Daily Weather History Graph

Daily Weather History Graph

Search for Another Location

Airport:

Trip Planner

Search our weather history database for the weather conditions in past years. The results will help you decide how hot, cold, wet, or windy it might be!

Date:

Astronomy

Jan. 29, 2013 Rise Set
Actual Time 7:12 AM MST 5:24 PM MST
Civil Twilight 6:44 AM MST 5:52 PM MST
Nautical Twilight 6:12 AM MST 6:24 PM MST
Astronomical Twilight 5:41 AM MST 6:55 PM MST
Moon 8:20 PM MST (1/29) 8:13 AM MST (1/29)
Length of Visible Light 11h 07m
Length of Day
10h 11m
Waning Gibbous, 93% of the Moon is Illuminated
Jan 29
Waning Gibbous
Feb 3
Last Quarter
Feb 10
New
Feb 17
First Quarter
Feb 25
Full

Hourly Weather History & Observations

Time (MST) Temp. Dew Point Humidity Pressure Visibility Wind Dir Wind Speed Gust Speed Precip Events Conditions
12:17 AM 8.6 °F 5.0 °F 85% 29.69 in - North - - N/A   Overcast
12:37 AM 8.6 °F 3.2 °F 79% 29.68 in - North - - N/A   Overcast
12:57 AM 8.6 °F 3.2 °F 79% 29.67 in - North - - N/A   Overcast
1:17 AM 6.8 °F 3.2 °F 85% 29.67 in - North - - N/A   Overcast
1:37 AM 6.8 °F 3.2 °F 85% 29.66 in - North - - N/A   Overcast
1:57 AM 5.0 °F 3.2 °F 92% 29.65 in - North - - N/A   Overcast
2:17 AM 5.0 °F 1.4 °F 85% 29.64 in - North - - N/A   Overcast
2:37 AM 5.0 °F 1.4 °F 85% 29.64 in - North - - N/A   Overcast
2:57 AM 5.0 °F 1.4 °F 85% 29.64 in - North - - N/A   Overcast
3:17 AM 3.2 °F -0.4 °F 85% 29.63 in - North - - N/A   Overcast
3:37 AM 3.2 °F -0.4 °F 85% 29.62 in - North - - N/A   Overcast
3:57 AM 3.2 °F -0.4 °F 85% 29.62 in - North - - N/A   Overcast
4:17 AM 3.2 °F -0.4 °F 85% 29.62 in - North - - N/A   Overcast
4:37 AM 3.2 °F -0.4 °F 85% 29.60 in - North - - N/A   Overcast
4:57 AM 3.2 °F -2.2 °F 78% 29.60 in - North - - N/A   Overcast
5:17 AM 1.4 °F -2.2 °F 85% 29.59 in - North - - N/A   Overcast
5:37 AM 1.4 °F -2.2 °F 85% 29.58 in - North - - N/A   Overcast
5:57 AM 1.4 °F -4.0 °F 78% 29.58 in - North - - N/A   Overcast
6:17 AM 1.4 °F -4.0 °F 78% 29.59 in - North - - N/A   Overcast
6:37 AM -0.4 °F -4.0 °F 85% 29.58 in - North - - N/A   Overcast
6:57 AM -0.4 °F -5.8 °F 78% 29.58 in - North - - N/A   Unknown
7:17 AM -0.4 °F -5.8 °F 78% 29.59 in - North - - N/A   Overcast
7:37 AM -2.2 °F -5.8 °F 85% 29.59 in - North - - N/A   Overcast
7:57 AM -2.2 °F -7.6 °F 78% 29.58 in - North - - N/A   Overcast
8:17 AM -2.2 °F -7.6 °F 78% 29.59 in - North - - N/A   Overcast
8:37 AM -2.2 °F -7.6 °F 78% 29.59 in - North - - N/A   Overcast
8:57 AM -2.2 °F -7.6 °F 78% 29.60 in - North - - N/A   Overcast
9:17 AM -2.2 °F -7.6 °F 78% 29.59 in - North - - N/A   Overcast
9:37 AM -2.2 °F -7.6 °F 78% 29.58 in - North - - N/A   Overcast
9:57 AM -2.2 °F -5.8 °F 85% 29.59 in - North - - N/A   Overcast
10:17 AM -0.4 °F -5.8 °F 78% 29.59 in - North - - N/A   Overcast
10:37 AM -0.4 °F -5.8 °F 78% 29.59 in - North - - N/A   Overcast
10:57 AM -0.4 °F -5.8 °F 78% 29.59 in - North - - N/A   Overcast
11:17 AM -0.4 °F -5.8 °F 78% 29.59 in - North - - N/A   Overcast
11:37 AM -0.4 °F -5.8 °F 78% 29.58 in - North - - N/A   Overcast
11:57 AM -0.4 °F -5.8 °F 78% 29.57 in - North - - N/A   Overcast
12:17 PM -0.4 °F -5.8 °F 78% 29.56 in - North - - N/A   Overcast
12:37 PM -0.4 °F -5.8 °F 78% 29.56 in - North - - N/A   Overcast
12:57 PM -0.4 °F -5.8 °F 78% 29.56 in - North - - N/A   Overcast
1:17 PM -0.4 °F -5.8 °F 78% 29.56 in - North - - N/A   Overcast
1:37 PM -0.4 °F -5.8 °F 78% 29.56 in - North - - N/A   Overcast
1:57 PM -0.4 °F -5.8 °F 78% 29.57 in - North - - N/A   Overcast
2:17 PM -0.4 °F -5.8 °F 78% 29.58 in - North - - N/A   Overcast
2:37 PM -0.4 °F -4.0 °F 85% 29.59 in - North - - N/A   Overcast
2:57 PM 1.4 °F -4.0 °F 78% 29.60 in - North - - N/A   Unknown
3:17 PM -0.4 °F -5.8 °F 78% 29.61 in - North - - N/A   Overcast
3:37 PM -0.4 °F -5.8 °F 78% 29.62 in - North - - N/A   Unknown
3:57 PM -0.4 °F -5.8 °F 78% 29.63 in - North - - N/A   Overcast
4:17 PM -0.4 °F -4.0 °F 85% 29.64 in - North - - N/A   Unknown
4:37 PM -0.4 °F -5.8 °F 78% 29.65 in - North - - N/A   Overcast
4:57 PM -0.4 °F -5.8 °F 78% 29.66 in - North - - N/A   Overcast
5:17 PM -2.2 °F -5.8 °F 85% 29.66 in - North - - N/A   Unknown
5:37 PM -2.2 °F -7.6 °F 78% 29.68 in - North - - N/A   Overcast
5:57 PM -2.2 °F -7.6 °F 78% 29.68 in - North - - N/A   Overcast
6:17 PM -2.2 °F -7.6 °F 78% 29.68 in - North - - N/A   Overcast
6:37 PM -2.2 °F -5.8 °F 85% 29.69 in - North - - N/A   Overcast
6:57 PM -2.2 °F -5.8 °F 85% 29.70 in - North - - N/A   Overcast
7:17 PM -2.2 °F -5.8 °F 85% 29.71 in - North - - N/A   Overcast
7:37 PM -4.0 °F -7.6 °F 85% 29.71 in - North - - N/A   Overcast
7:57 PM -4.0 °F -7.6 °F 85% 29.73 in - North - - N/A   Overcast
8:17 PM -4.0 °F -9.4 °F 78% 29.73 in - North - - N/A   Overcast
8:37 PM -4.0 °F -9.4 °F 78% 29.73 in - North - - N/A   Overcast
8:57 PM -4.0 °F -7.6 °F 85% 29.74 in - North - - N/A   Overcast
9:17 PM -4.0 °F -9.4 °F 78% 29.74 in - North - - N/A   Overcast
9:37 PM -4.0 °F -9.4 °F 78% 29.75 in - North - - N/A   Overcast
9:57 PM -5.8 °F -9.4 °F 84% 29.75 in - North - - N/A   Overcast
10:17 PM -5.8 °F -11.2 °F 77% 29.76 in - North - - N/A   Scattered Clouds
10:37 PM -5.8 °F -9.4 °F 84% 29.76 in - North - - N/A   Unknown
11:37 PM -5.8 °F -13.0 °F 71% 29.76 in - North - - N/A   Clear
11:57 PM -7.6 °F -13.0 °F 77% 29.77 in - North - - N/A   Clear